Location: Niles Junction
(37.5763°N, 121.9714°W)
Time: 04:27:28
(UTC+00:00)

COSMO-SKYMED 1 - Pass Details

Date: 29 October 2020
Orbit: 621 x 623 km, 97.9° (Epoch: 23 November)

Event Time Altitude Azimuth Distance (km) Brightness Sun altitude
Rises 13:20:22 0° 165° (SSE) 2,889 6.3 -14.4°
Reaches altitude 10° 13:22:33 10° 164° (SSE) 1,987 5.4 -14.0°
Maximum altitude 13:26:52 85° 77° (ENE) 631 2.6 -13.1°
Drops below altitude 10° 13:31:14 10° 349° (N) 2,001 5.0 -12.3°
Sets 13:33:26 0° 349° (N) 2,911 5.8 -11.9°
